This is the latest recevied weather packets stored in our database for station/object KA1JKB. If no packets are shown the sender has not sent any weather packets the latest 10 day(s).
| Time | Temp. | Humidity | Pressure | Rain* | Wind** | Luminosity | Snow |
|---|---|---|---|---|---|---|---|
| 1787710886 | 15.56° C | 99% | 1015.9 hPa | 0 mm | - | 0 W/m² | - |
| 1787710583 | 15.56° C | 99% | 1015.8 hPa | 0 mm | - | 0 W/m² | - |
| 1787710282 | 16.11° C | 99% | 1016.2 hPa | 0 mm | - | 0 W/m² | - |
| 1787709978 | 16.11° C | 99% | 1016.1 hPa | 0 mm | - | 0 W/m² | - |
| 1787709674 | 16.67° C | 99% | 1016.2 hPa | 0 mm | - | 0 W/m² | - |
| 1787709369 | 16.67° C | 99% | 1016.2 hPa | 0 mm | - | 0 W/m² | - |
| 1787709065 | 16.67° C | 99% | 1016.1 hPa | 0 mm | - | 0 W/m² | - |
| 1787708761 | 16.67° C | 99% | 1016 hPa | 0 mm | - | 0 W/m² | - |
| 1787708460 | 17.22° C | 99% | 1016 hPa | 0 mm | - | 0 W/m² | - |
| 1787708155 | 17.22° C | 99% | 1016.1 hPa | 0 mm | - | 0 W/m² | - |
| 1787707852 | 17.22° C | 99% | 1016.1 hPa | 0 mm | - | 0 W/m² | - |
| 1787707552 | 17.22° C | 98% | 1016 hPa | 0 mm | - | 0 W/m² | - |
| 1787707248 | 17.78° C | 98% | 1016.1 hPa | 0 mm | - | 0 W/m² | - |
| 1787706943 | 17.78° C | 97% | 1016.1 hPa | 0 mm | - | 0 W/m² | - |
| 1787706642 | 17.78° C | 96% | 1016 hPa | 0 mm | - | 0 W/m² | - |
| 1787706338 | 18.33° C | 96% | 1015.9 hPa | 0 mm | - | 0 W/m² | - |
| 1787706033 | 18.33° C | 95% | 1015.9 hPa | 0 mm | - | 0 W/m² | - |
| 1787705728 | 18.33° C | 95% | 1016.1 hPa | 0 mm | - | 0 W/m² | - |
| 1787705424 | 18.89° C | 94% | 1016 hPa | 0 mm | - | 0 W/m² | - |
| 1787705119 | 18.89° C | 94% | 1015.9 hPa | 0 mm | - | 0 W/m² | - |
| 1787704815 | 18.89° C | 93% | 1015.8 hPa | 0 mm | - | 0 W/m² | - |
| 1787704510 | 19.44° C | 93% | 1015.8 hPa | 0 mm | - | 0 W/m² | - |
| 1787704210 | 19.44° C | 93% | 1015.8 hPa | 0 mm | - | 0 W/m² | - |
| 1787703910 | 20° C | 92% | 1015.7 hPa | 0 mm | - | 2 W/m² | - |
| 1787703605 | 20.56° C | 90% | 1016 hPa | 0 mm | - | 3 W/m² | - |
* Rain latest hour (hover to see other rain measurements)
** Current wind speed in m/s (hover to see current wind gust speed)